Miscellaneous Hydrologic Data Report
Issued by NWS (Baltimore/Washington) Sterling, VA
1 of 51 available versions  First Miscellaneous Hydrologic Data Report Previous Miscellaneous Hydrologic Data Report  Print this page Close this Window


000
ASUS41 KLWX 200910
RWRLWX

REGIONAL WEATHER ROUNDUP
NATIONAL WEATHER SERVICE BALTIMORE MD/WASHINGTON DC
500 AM EDT SAT SEP 20 2014

Note: "FAIR" indicates few or no clouds below 12,000 feet
with no significant weather and/or obstructions to visibility.
 TC=TEMPERATURE CELSIUS

 * =Non NWS site. Station does not report precipitation (e.g. rain,
    snow, etc.), thunder, or fog.

DCZ001-MDZ009-015-VAZ040>042-051-053>054-201000-
WASHINGTON METRO

CITY           SKY/WX    TMP DP  RH WIND       PRES   REMARKS
WASHINGTON NAT MOCLDY    65  59  81 CALM      30.26F
DULLES         MOCLDY    61  59  93 CALM      30.26S
ANDREWS AFB    PTCLDY    57  56  99 E6        30.25F
QUANTICO       CLOUDY    65  61  87 NW3       30.26S
COLLEGE PARK*  PTCLDY    61  61 100 CALM      30.26S
LEESBURG*      PTCLDY    63  63 100 CALM      30.27S
MANASSAS*      CLOUDY    61  61 100 CALM      30.25F
GAITHERSBURG*  CLOUDY    63  59  88 SE7       30.29F

$$

MDZ006>007-011-014-201000-
BALTIMORE METRO

CITY           SKY/WX    TMP DP  RH WIND       PRES   REMARKS
BWI AIRPORT    MOCLDY    63  60  90 CALM      30.26S
MD SCIENCE CTR   N/A     64  59  83 MISG      30.27S
MARTIN STATE   PTCLDY    61  61 100 CALM      30.28S
ANNAPOLIS        N/A     68  61  78 SE8       30.26S
FORT MEADE*    CLOUDY    59  55  88 CALM      30.28F

$$

MDZ012-015-019>023-201000-
MARYLAND EASTERN SHORE

CITY           SKY/WX    TMP DP  RH WIND       PRES   REMARKS
OCEAN CITY     CLEAR     70  61  73 SE12      30.24S
SALISBURY      CLEAR     59  56  89 CALM      30.24S
CAMBRIDGE*     CLEAR     59  55  88 CALM      30.25R
EASTON*        MOCLDY    60  60 100 CALM      30.29S

$$

MDZ017>025-201000-
SOUTHERN MARYLAND

CITY           SKY/WX    TMP DP  RH WIND       PRES   REMARKS
PATUXENT RIVER MOCLDY    65  61  87 NE5       30.24S
ST INIGOES     PTCLDY    59  55  87 CALM      30.23F
LEONARDTOWN*   CLEAR     57  55  94 CALM      30.26R

$$

MDZ003>005-201000-
NORTH CENTRAL MARYLAND

CITY           SKY/WX    TMP DP  RH WIND       PRES   REMARKS
FREDERICK*     CLOUDY    61  61 100 CALM      30.29R FOG
HAGERSTOWN APT CLOUDY    63  59  87 S9        30.25S
WESTMINSTER*   CLOUDY    61  57  88 SE5       30.27S FOG

$$

MDZ501>502-201000-
WESTERN MARYLAND

CITY           SKY/WX    TMP DP  RH WIND       PRES   REMARKS
OAKLAND*       MOCLDY    54 N/A N/A SE12      30.23S
CUMBERLAND*    MOCLDY    63  55  77 S5        30.26S

$$

VAZ025>031-201000-
SHENANDOAH VALLEY

CITY           SKY/WX    TMP DP  RH WIND       PRES   REMARKS
WINCHESTER*    CLEAR     63  57  82 SE6       30.25S
STAUNTON*      CLOUDY    62  55  78 S5        30.27F

$$

WVZ021-048>050-054>055-201000-
EASTERN WEST VIRGINIA PANHANDLE

CITY           SKY/WX    TMP DP  RH WIND       PRES   REMARKS
MARTINSBURG    MOCLDY    64  58  80 SE8       30.24F
PETERSBURG*    PTCLDY    59  56  89 S3        30.23S

$$

VAZ036>039-050-201000-
CENTRAL FOOTHILLS

CITY           SKY/WX    TMP DP  RH WIND       PRES   REMARKS
CHARLOTTESVILL LGT RAIN  61  59  93 CALM      30.25F
ORANGE*        CLOUDY    59  55  88 CALM      30.27S

$$

VAZ055>057-201000-
NORTH AND CENTRAL PIEDMONT

CITY           SKY/WX    TMP DP  RH WIND       PRES   REMARKS
FREDERICKSBRG* PTCLDY    58  58 100 CALM      30.25R
STAFFORD*      CLOUDY    57  57 100 CALM      30.29S FOG

$$

NCZ024-NYZ072-PAZ021-071-VAZ022-071-201000-
OTHER REGIONAL OBSERVATIONS

CITY           SKY/WX    TMP DP  RH WIND       PRES   REMARKS
NEW YORK CITY  PTCLDY    58  51  78 CALM      30.35R
PHILADELPHIA   CLOUDY    60  55  83 NE3       30.30S
PITTSBURGH     PTCLDY    58  54  86 SE3       30.13S
ROANOKE        CLOUDY    61  59  93 NE3       30.27S
RICHMOND       PTCLDY    60  57  89 NW5       30.23S
RALEIGH        PTCLDY    59  56  89 CALM      30.20F

$$

ANZ530>537-201000-
MARINE OBSERVATIONS

STATION/POSITION TIME  TEMP    WIND        PRES
                       AIR SEA DIR/SP/G
                 (UTC) (F)     (DEG/KT/KT) (MB)
THOMAS PT LIGHT  0900   67 73  130/  8/  8 1025.7R
BALT KEY BRIDGE  0900   65      50/  5/  6 1024.6F
COVE POINT       0900   66      90/  6/  7 1024.2R
LEWISETTA        0900   67 73  230/  3/  3 1023.4S
SOLOMONS ISLAND  0900      75                N/A
PINEY POINT      0900           70/  3/  4   N/A

$$

Close this window


The National Weather Service prepares its forecasts and other services in collaboration with agencies like the US Geological Survey, US Bureau of Reclamation, US Army Corps of Engineers, Natural Resource Conservation Service, National Park Service, ALERT Users Group, Bureau of Indian Affairs, and many state and local emergency managers across the country. For details, please click here.

National Weather Service
(Baltimore/Washington) Sterling Weather Forecast Office
43858 Weather Service Rd.
Sterling, VA 20166
(703) 996-2200
Page last modified: 20-Sep-2014 9:10 AM
Disclaimer
Credits
Glossary
Privacy Policy
About Us
Career Opportunities